Location: Unspecified
(54.8312°N, 0.0000°E)
Time: 05:24:09
(UTC+00:00)

ISS - Pass Details

Date: 25 November 2019
Orbit: 411 x 421 km, 51.6° (Epoch: 14 December)

Event Time Altitude Azimuth Distance (km) Brightness Sun altitude
Rises 18:11:14 0° 224° (SW) 2,353 0.9 -20.3°
Reaches altitude 10° 18:13:33 10° 211° (SSW) 1,494 -0.5 -20.6°
Enters shadow 18:15:31 22° 178° (S) 968 -1.9 -20.9°
